SV4JYD-13 Weather Reports


time (UTC)temp
F
wind
direction
speed
knots
gust
knots
rain 1hr
in
rain 24hr
in
rain mn
in
humidity
%
barometer
mb
20260507224530 60 146 3.5 3.5 0.00 0.00 0.00 96 1017.0
20260507223029 61 146 3.5 3.5 0.00 0.00 0.00 98 1018.0
20260507221529 61 146 3.5 3.5 0.00 0.00 0.00 10 1018.0
20260507220029 62 146 3.5 3.5 0.00 0.00 0.00 99 1018.0
20260507214529 62 146 3.5 3.5 0.00 0.00 0.00 97 1018.0
20260507213028 63 146 3.5 3.5 0.00 0.00 0.00 97 1018.0
20260507211528 63 146 3.5 3.5 0.00 0.00 0.00 98 1018.0
20260507210028 63 146 3.5 3.5 0.00 0.00 0.00 10 1018.0
20260507204528 64 146 3.5 3.5 0.00 0.00 0.00 10 1018.0
20260507203027 65 146 3.5 3.5 0.00 0.00 0.00 10 1018.0
20260507201527 65 146 3.5 3.5 0.00 0.00 0.00 10 1018.0
20260507200027 65 146 3.5 3.5 0.00 0.00 0.00 99 1018.0
20260507194527 64 146 3.5 3.5 0.00 0.00 0.00 97 1018.0
20260507193026 65 146 3.5 3.5 0.00 0.00 0.00 97 1018.0
20260507191526 65 146 3.5 3.5 0.00 0.00 0.00 97 1018.0
20260507190026 66 146 3.5 3.5 0.00 0.00 0.00 97 1017.0
20260507184526 66 146 3.5 3.5 0.00 0.00 0.00 94 1017.0
20260507183025 66 146 3.5 3.5 0.00 0.00 0.00 94 1017.0
20260507181525 67 146 3.5 3.5 0.00 0.00 0.00 93 1017.0
20260507180025 67 146 3.5 3.5 0.00 0.00 0.00 92 1017.0
20260507174525 68 146 3.5 3.5 0.00 0.00 0.00 90 1017.0
20260507173024 69 146 3.5 3.5 0.00 0.00 0.00 87 1017.0
20260507171524 69 146 3.5 3.5 0.00 0.00 0.00 86 1017.0
20260507170024 68 146 3.5 3.5 0.00 0.00 0.00 85 1017.0
20260507164524 69 146 3.5 3.5 0.00 0.00 0.00 85 1017.0
20260507163023 71 164 3.5 4.3 0.00 0.00 0.00 81 1017.0
20260507161523 72 164 3.5 4.3 0.00 0.00 0.00 80 1017.0
20260507160023 71 164 3.5 4.3 0.00 0.00 0.00 79 1017.0
20260507154523 72 164 3.5 4.3 0.00 0.00 0.00 78 1017.0
20260507153022 73 309 3.5 4.3 0.00 0.00 0.00 74 1017.0
20260507151522 73 309 3.5 4.3 0.00 0.00 0.00 74 1017.0
20260507150022 72 309 3.5 4.3 0.00 0.00 0.00 71 1017.0
20260507144521 71 309 3.5 4.3 0.00 0.00 0.00 70 1017.0
20260507143021 72 309 3.5 4.3 0.00 0.00 0.00 65 1017.0
20260507141521 71 309 3.5 4.3 0.00 0.00 0.00 61 1017.0
20260507140021 71 309 3.5 4.3 0.00 0.00 0.00 63 1017.0
20260507134521 72 309 3.5 4.3 0.00 0.00 0.00 63 1017.0
20260507133020 71 309 3.5 4.3 0.00 0.00 0.00 59 1017.0
20260507131520 72 309 3.5 4.3 0.00 0.00 0.00 59 1018.0
20260507130020 72 309 3.5 4.3 0.00 0.00 0.00 61 1018.0
20260507123019 72 309 3.5 4.3 0.00 0.00 0.00 62 1018.0
20260507121519 70 309 3.5 4.3 0.00 0.00 0.00 62 1018.0
20260507120018 70 309 3.5 4.3 0.00 0.00 0.00 64 1019.0
20260507114518 70 309 3.5 4.3 0.00 0.00 0.00 66 1019.0
20260507113018 70 309 3.5 4.3 0.00 0.00 0.00 69 1018.0
20260507111518 71 309 3.5 4.3 0.00 0.00 0.00 69 1018.0
20260507110017 71 309 3.5 4.3 0.00 0.00 0.00 70 1018.0
20260507104517 71 309 3.5 4.3 0.00 0.00 0.00 72 1018.0
20260507103017 71 309 3.5 4.3 0.00 0.00 0.00 70 1018.0
20260507101517 71 309 3.5 4.3 0.00 0.00 0.00 72 1018.0
20260507100016 72 309 3.5 4.3 0.00 0.00 0.00 79 1018.0
20260507094516 73 309 3.5 4.3 0.00 0.00 0.00 79 1018.0
20260507093016 68 280 0.9 0.9 0.00 0.00 0.00 75 1018.0
20260507091515 68 280 0.9 0.9 0.00 0.00 0.00 73 1018.0
20260507090015 68 280 0.9 0.9 0.00 0.00 0.00 76 1018.0
20260507084515 68 280 0.9 0.9 0.00 0.00 0.00 79 1018.0
20260507083015 68 280 0.9 0.9 0.00 0.00 0.00 83 1018.0
20260507081514 68 280 0.9 0.9 0.00 0.00 0.00 83 1018.0
20260507080014 68 280 0.9 0.9 0.00 0.00 0.00 84 1018.0
20260507074514 68 280 0.9 0.9 0.00 0.00 0.00 85 1018.0
20260507073013 68 280 1.7 0.9 0.00 0.00 0.00 85 1018.0
20260507071513 68 280 2.6 1.7 0.00 0.00 0.00 85 1018.0
20260507070014 63 292 0.9 0.9 0.00 0.00 0.00 10 1018.0
20260507064513 63 292 0.9 0.9 0.00 0.00 0.00 10 1018.0
20260507063012 63 292 0.9 0.9 0.00 0.00 0.00 10 1017.0
20260507061512 64 292 0.9 0.9 0.00 0.00 0.00 10 1017.0
20260507060012 65 292 1.7 0.9 0.00 0.00 0.00 10 1017.0
20260507054512 66 292 2.6 1.7 0.00 0.00 0.00 10 1017.0
20260507053011 59 329 0.9 0.9 0.00 0.00 0.00 10 1017.0
20260507051511 60 329 0.9 0.9 0.00 0.00 0.00 10 1017.0
20260507050011 59 329 0.9 0.9 0.00 0.00 0.00 10 1017.0
20260507044511 59 329 0.9 0.9 0.00 0.00 0.00 10 1017.0
20260507043010 59 329 0.9 0.9 0.00 0.00 0.00 99 1017.0
20260507041510 58 329 1.7 1.7 0.00 0.00 0.00 10 1017.0
20260507031732 56 310 1.7 1.7 0.00 0.00 0.00 10 1016.0
20260507030232 56 310 0.9 0.9 0.00 0.00 0.00 10 1016.0
20260507024731 57 310 1.7 1.7 0.00 0.00 0.00 10 1016.0
20260507023231 56 298 1.7 1.7 0.00 0.00 0.00 10 1016.0
20260507021731 56 298 1.7 1.7 0.00 0.00 0.00 10 1016.0
20260507020231 56 298 1.7 1.7 0.00 0.00 0.00 10 1016.0
20260507014731 57 298 1.7 1.7 0.00 0.00 0.00 10 1016.0
20260507013230 57 273 0.9 0.9 0.00 0.00 0.00 10 1016.0
20260507011729 58 273 0.9 0.9 0.00 0.00 0.00 10 1016.0
20260507010229 57 273 0.9 0.9 0.00 0.00 0.00 10 1016.0
20260507004729 56 331 0.9 0.9 0.00 0.00 0.00 10 1016.0
20260507003228 57 136 0.9 0.9 0.00 0.00 0.00 10 1016.0
20260507001728 58 136 0.9 0.9 0.00 0.00 0.00 10 1015.0
20260507000228 59 136 0.9 0.9 0.00 0.00 0.00 99 1016.0
20260506233227 58 136 0.9 0.9 0.00 0.00 0.00 10 1016.0
20260506231727 59 136 0.9 0.9 0.00 0.00 0.00 10 1016.0
20260506230227 60 136 0.9 0.9 0.00 0.00 0.00 10 1016.0